Temp
62 62 62 62 61 61 61 61 61 61 60 60 60 60 60 60 61 61 61 61 61 61 61 61 62 62 64 66 76 95 82 81 84 86 88 88 84 84 79 84 89 85 90 92 91 92 88
62 62 62 61 61 61 61 61 61 60 60 60 60 60 60 60 60 60 60 60 60 60 60 61 62 63 63 65 92 98 89 84 89 86 86 89 87 90 86 86 84 91 92 91 90 91 92
61 61 61 61 61 61 61 60 60 60 60 59 59 59 59 59 60 60 60 60 60 60 61 62 63 68 71 74 95 92 92 88 89 88 85 92 93 88 88 83 92 92 82 89 87 88 87
61 61 61 61 61 60 60 60 60 60 59 59 59 59 59 59 59 59 59 59 59 60 61 63 64 66 63 91 92 92 93 93 94 92 91 93 95 89 84 89 88 81 82 72 85 88 88
61 61 61 61 61 60 60 59 59 59 59 59 59 59 58 58 59 59 58 58 60 62 64 65 60 61 67 91 85 92 94 92 93 93 91 100 92 83 84 76 71 73 67 76 80 89 87
61 61 61 61 60 60 59 59 59 59 58 58 58 58 58 58 58 58 58 59 63 65 66 74 76 65 77 83 92 94 96 98 92 90 88 86 80 74 74 66 61 66 72 75 75 83 83
61 60 60 60 60 59 59 59 59 58 58 58 58 58 57 58 58 57 56 61 65 62 66 69 72 76 86 93 97 92 95 93 91 85 73 80 68 66 72 77 80 80 77 75 81 88 78
60 60 60 60 59 59 59 58 58 58 58 58 58 57 57 57 57 57 56 62 73 75 66 80 80 81 87 91 84 92 96 83 81 74 77 72 69 79 84 83 81 80 75 74 81 85 77
60 59 59 59 59 59 58 58 58 58 57 57 57 57 57 56 56 61 68 70 84 81 63 73 80 80 82 85 81 87 90 86 79 74 76 70 74 85 84 81 80 78 75 74 75 82 85
59 59 59 59 59 58 58 58 57 57 57 57 57 57 56 55 61 61 65 81 84 82 54 67 73 81 84 86 79 97 95 88 81 75 77 74 83 82 81 80 81 72 85 87 83 75 64
59 59 59 58 58 58 57 57 57 57 57 57 57 56 56 55 52 56 72 78 82 73 44 82 80 92 86 80 83 87 97 87 78 78 75 73 78 78 78 81 85 78 86 85 82 77 74
59 59 58 58 58 58 57 57 57 57 56 56 56 56 56 58 61 65 72 76 73 52 47 76 84 79 77 80 82 88 87 90 88 80 80 78 86 83 82 88 88 89 83 81 77 74 64
58 58 58 58 57 57 57 57 56 56 56 56 55 55 54 60 55 73 70 66 49 47 76 74 75 77 76 74 77 81 79 76 71 65 66 75 79 85 89 78 85 83 71 58 54 55 56
58 58 58 57 57 57 56 56 56 56 56 55 55 54 58 68 68 66 65 54 43 64 66 81 79 79 73 77 76 79 76 72 78 73 65 63 62 79 87 80 72 77 72 60 50 52 60
58 58 58 57 57 57 56 56 56 56 55 54 54 59 61 67 73 72 58 45 51 62 76 68 71 73 71 78 77 76 74 73 77 78 65 65 66 84 87 86 82 72 70 75 62 65 63
58 58 57 57 57 56 56 56 56 56 55 54 50 54 59 72 75 68 55 47 55 68 68 65 58 70 67 74 74 72 72 78 79 82 82 70 60 79 85 87 84 78 78 68 66 52 51
57 57 57 57 57 56 56 56 56 55 54 54 52 52 68 78 75 62 48 51 58 67 69 65 64 62 65 67 74 73 72 80 83 83 83 78 68 70 81 75 73 70 72 65 67 63 55
57 57 57 57 57 56 56 56 55 54 53 55 52 44 69 72 53 57 51 57 59 62 68 65 66 65 65 69 66 66 72 79 88 86 76 80 66 63 70 81 86 77 71 67 58 57 60
57 57 57 57 56 56 56 56 55 54 53 50 46 50 66 67 47 51 57 60 64 63 64 64 64 69 71 65 58 68 73 84 87 85 79 80 71 61 62 69 79 77 76 72 68 63 61
57 57 57 57 56 56 56 56 55 55 54 51 47 43 52 55 54 48 50 54 56 68 67 69 66 69 66 62 64 61 68 79 83 83 80 81 68 67 61 63 70 72 77 76 68 66 62
57 57 57 56 56 56 56 56 56 55 55 52 50 46 48 37 39 44 49 51 54 56 65 65 64 66 62 54 58 60 65 65 72 71 73 81 69 68 74 77 78 75 78 78 71 67 63
57 57 56 56 56 56 56 56 56 55 54 50 44 41 46 42 45 47 48 48 54 58 59 58 56 65 63 54 54 52 56 56 58 64 64 66 60 66 66 78 78 75 79 80 79 78 70
56 56 56 56 56 56 56 56 55 54 53 49 53 52 44 44 47 46 39 47 51 55 59 63 60 56 58 57 61 62 63 62 62 59 58 59 58 59 55 69 70 65 74 75 77 81 79
56 56 56 56 56 56 56 56 55 54 52 50 52 48 41 38 44 46 44 49 49 53 52 59 61 54 61 68 66 65 64 63 65 63 64 57 55 57 55 59 52 67 80 80 77 80 79
56 56 56 56 56 56 57 57 56 55 54 50 54 47 42 37 44 47 48 48 53 52 53 58 59 62 67 61 52 49 52 53 60 65 63 65 58 54 53 54 62 72 77 75 71 71 79
55 55 56 56 56 56 56 57 57 55 54 51 52 51 46 39 42 49 46 50 46 47 51 55 60 63 63 53 49 41 43 52 53 59 66 64 60 56 54 51 52 65 80 86 81 62 80
55 55 55 56 56 56 56 57 57 57 55 51 52 53 47 41 49 50 46 46 53 51 47 52 53 54 59 50 46 44 46 56 50 51 52 54 54 52 54 53 61 75 81 83 61 62 76
55 55 55 55 56 56 56 56 56 57 56 53 52 54 47 44 49 53 55 50 52 51 45 51 50 49 49 44 45 47 47 51 51 54 53 53 51 51 54 52 51 77 77 66 68 72 77
54 54 55 55 55 56 56 56 56 56 56 55 50 58 54 45 48 56 57 59 57 57 52 54 49 49 48 44 44 45 46 50 48 47 58 52 56 54 58 58 66 71 69 72 74 73 76
MSLP
1024.23 1023.89 1023.56 1023.21 1022.87 1022.47 1022.03 1021.61 1021.15 1020.69 1020.20 1019.64 1019.05 1018.43 1017.75 1016.99 1016.37 1015.78 1015.12 1014.46 1013.80 1013.18 1012.77 1012.35 1011.93 1011.55 1010.76 1009.77 1005.76 1003.33 1003.77 1004.10 1004.40 1004.61 1004.33 1004.31 1003.69 1003.32 1002.72 1001.71 1000.74 999.73 999.81 1000.11 1000.74 1001.43 1002.04
1024.55 1024.20 1023.82 1023.44 1023.06 1022.67 1022.24 1021.76 1021.28 1020.75 1020.20 1019.60 1018.95 1018.28 1017.54 1016.75 1015.92 1015.19 1014.56 1013.98 1013.30 1012.65 1012.25 1011.95 1011.71 1011.49 1010.85 1008.06 1003.31 1002.53 1003.24 1004.11 1003.78 1004.19 1003.87 1003.84 1003.00 1002.71 1002.26 1001.66 1000.91 999.73 999.54 1000.26 1000.83 1001.34 1001.99
1024.87 1024.51 1024.11 1023.71 1023.31 1022.88 1022.42 1021.93 1021.41 1020.85 1020.27 1019.65 1018.94 1018.12 1017.32 1016.51 1015.69 1014.80 1013.93 1013.30 1012.69 1012.04 1011.54 1011.39 1011.35 1010.99 1009.31 1004.90 1002.37 1002.64 1002.82 1002.83 1002.90 1003.22 1003.47 1003.21 1002.85 1002.93 1001.84 1001.49 1000.30 999.92 1000.08 1000.44 1001.04 1001.28 1002.17
1025.10 1024.71 1024.31 1023.91 1023.54 1023.14 1022.68 1022.15 1021.60 1021.01 1020.33 1019.57 1018.83 1018.07 1017.19 1016.20 1015.30 1014.43 1013.46 1012.48 1011.73 1011.17 1010.84 1010.65 1010.81 1010.37 1007.33 1002.79 1002.09 1002.17 1002.36 1002.27 1002.01 1002.33 1002.74 1002.79 1002.51 1002.61 1002.26 1001.73 1001.00 1000.98 1000.17 1000.90 1001.03 1001.35 1001.94
1025.26 1024.86 1024.50 1024.10 1023.72 1023.31 1022.85 1022.34 1021.79 1021.19 1020.51 1019.74 1018.85 1017.87 1016.98 1015.97 1014.92 1013.94 1012.91 1011.61 1010.32 1009.97 1010.05 1010.23 1010.34 1009.41 1005.19 1001.37 1001.69 1001.14 1001.23 1001.45 1001.45 1001.84 1002.20 1002.37 1002.48 1002.57 1002.28 1002.45 1002.09 1001.18 1000.99 1000.83 1001.58 1001.79 1002.13
1025.39 1025.01 1024.60 1024.19 1023.81 1023.41 1022.93 1022.38 1021.79 1021.19 1020.53 1019.77 1018.91 1017.96 1016.89 1015.72 1014.50 1013.60 1012.35 1010.33 1008.91 1009.31 1009.41 1009.48 1008.71 1008.21 1003.66 1000.71 999.95 1000.35 1000.51 1000.71 1001.01 1001.59 1002.05 1002.32 1002.55 1002.73 1002.69 1002.91 1002.43 1001.74 1001.37 1001.69 1001.82 1001.90 1002.21
1025.49 1025.13 1024.74 1024.30 1023.90 1023.43 1022.92 1022.37 1021.78 1021.17 1020.42 1019.67 1018.87 1017.87 1016.77 1015.55 1014.10 1013.20 1012.37 1010.15 1008.99 1009.04 1008.21 1006.57 1005.03 1003.27 1000.51 999.77 999.59 999.64 999.71 1000.31 1000.59 1001.17 1001.87 1002.17 1002.77 1002.43 1002.29 1001.88 1001.39 1001.83 1001.35 1001.59 1001.41 1001.07 1002.27
1025.60 1025.20 1024.82 1024.39 1023.95 1023.50 1022.97 1022.34 1021.71 1021.09 1020.39 1019.61 1018.75 1017.79 1016.63 1015.29 1013.72 1012.39 1012.29 1010.84 1008.20 1007.47 1005.67 1004.37 1003.29 1002.48 1001.01 1000.18 999.94 999.07 999.41 1000.19 1000.40 1000.91 1001.63 1002.10 1001.69 1001.49 1001.51 1001.40 1001.09 1001.15 1001.60 1001.03 1000.72 1001.16 1001.42
1025.72 1025.30 1024.86 1024.41 1023.97 1023.49 1022.95 1022.38 1021.71 1020.99 1020.25 1019.45 1018.63 1017.79 1016.65 1015.18 1012.85 1011.61 1011.31 1009.33 1007.45 1006.80 1005.89 1001.93 1000.44 1000.04 999.61 999.85 999.06 997.99 998.68 999.49 1000.02 1000.57 1000.94 1000.92 1000.60 1001.23 1000.94 1000.62 1000.45 1000.15 1000.17 1000.37 1000.26 1000.59 1000.75
1025.77 1025.35 1024.91 1024.43 1023.95 1023.46 1022.90 1022.27 1021.65 1020.94 1020.15 1019.29 1018.47 1017.73 1016.99 1015.55 1012.27 1012.58 1010.45 1008.17 1007.45 1007.06 1005.71 1000.43 998.25 996.90 998.34 998.91 998.09 997.10 997.65 998.75 999.38 999.76 1000.29 1000.43 1000.22 1000.05 999.94 999.78 999.68 999.35 998.59 998.85 1000.06 1000.87 1001.05
1025.75 1025.35 1024.92 1024.46 1023.97 1023.43 1022.87 1022.25 1021.55 1020.82 1020.03 1019.11 1018.25 1017.52 1016.96 1016.89 1015.59 1013.26 1010.24 1009.05 1008.23 1007.48 1004.53 996.37 995.78 994.84 995.82 997.01 996.25 996.15 996.65 997.83 998.55 998.91 999.82 999.24 999.21 999.09 998.96 998.69 998.80 998.37 998.13 998.86 999.37 1000.28 1001.06
1025.85 1025.40 1024.93 1024.44 1023.94 1023.38 1022.79 1022.18 1021.54 1020.76 1019.86 1018.93 1017.97 1017.16 1016.53 1015.26 1014.52 1011.85 1010.86 1009.56 1008.27 1007.36 1001.97 995.85 994.47 994.72 995.89 996.67 996.18 996.01 996.58 997.29 998.05 998.77 998.79 998.83 998.24 998.04 997.94 997.87 998.01 997.87 998.36 998.68 999.11 1000.25 1000.75
1025.91 1025.43 1024.91 1024.37 1023.83 1023.25 1022.66 1022.04 1021.35 1020.62 1019.75 1018.68 1017.58 1016.43 1015.98 1015.30 1012.99 1010.67 1010.99 1009.91 1008.63 1004.92 998.85 995.43 994.69 994.91 995.24 995.78 996.42 996.19 996.49 997.02 997.52 998.39 998.47 998.49 997.88 997.37 997.09 997.42 997.48 997.79 998.84 999.65 1000.35 1000.23 1000.54
1025.93 1025.36 1024.87 1024.40 1023.89 1023.27 1022.63 1021.94 1021.24 1020.50 1019.59 1018.35 1017.11 1015.58 1013.37 1012.39 1011.42 1011.60 1011.19 1010.42 1007.37 1001.99 999.25 995.22 995.83 994.97 995.08 995.27 995.89 995.93 996.30 996.56 997.12 997.73 998.50 998.38 997.57 996.62 996.19 996.51 997.23 997.55 998.46 999.71 1000.35 1000.54 1000.23
1025.93 1025.45 1025.03 1024.54 1024.03 1023.41 1022.71 1021.96 1021.14 1020.35 1019.46 1018.12 1016.74 1014.17 1012.19 1009.89 1009.94 1010.31 1010.73 1009.23 1005.02 1002.11 999.44 999.37 996.80 995.33 995.04 994.86 994.98 995.67 995.68 995.90 996.17 996.95 997.66 997.74 997.12 996.31 995.92 995.97 996.58 997.44 997.56 998.55 999.81 1000.02 1000.20
1025.97 1025.48 1025.03 1024.61 1023.99 1023.41 1022.81 1022.07 1021.25 1020.35 1019.31 1018.05 1016.93 1014.31 1010.57 1008.70 1008.75 1009.35 1009.47 1007.40 1005.11 1002.43 1001.39 1001.23 999.79 996.63 995.99 994.69 994.90 995.04 995.20 994.45 995.03 995.70 996.66 996.77 997.16 996.11 995.56 995.76 995.82 996.49 997.63 998.40 999.08 1000.27 1000.66
1025.93 1025.50 1024.99 1024.41 1023.85 1023.35 1022.68 1021.91 1021.17 1020.46 1019.55 1017.86 1016.71 1013.97 1008.56 1007.45 1007.56 1008.38 1007.97 1007.13 1005.96 1003.11 1003.53 1001.91 1000.09 998.90 997.82 997.00 994.76 993.89 993.91 993.87 993.71 994.46 995.49 996.34 996.99 996.06 995.41 995.18 995.72 996.33 997.04 997.95 998.66 999.74 1000.25
1025.93 1025.33 1024.74 1024.27 1023.83 1023.31 1022.72 1022.02 1021.31 1020.59 1019.69 1018.23 1016.97 1014.45 1008.94 1009.33 1009.19 1008.25 1007.93 1007.23 1006.44 1004.18 1003.63 1002.85 1001.50 1000.08 998.78 997.66 996.46 995.50 993.56 992.55 992.49 993.23 994.17 995.03 995.77 996.22 995.57 994.66 994.73 995.40 996.27 997.37 998.83 999.29 999.46
1025.78 1025.23 1024.69 1024.16 1023.58 1023.10 1022.59 1022.03 1021.45 1020.85 1020.36 1019.65 1017.54 1014.59 1010.89 1009.69 1009.99 1008.89 1007.93 1006.75 1005.46 1004.19 1003.05 1002.43 1001.45 999.87 999.11 998.51 997.75 996.06 994.49 992.99 992.47 992.17 993.08 994.27 995.07 996.10 995.63 994.99 994.31 994.73 995.70 996.52 997.63 998.63 999.01
1025.53 1025.08 1024.53 1023.99 1023.53 1022.97 1022.41 1021.87 1021.36 1020.92 1020.51 1020.07 1018.22 1015.09 1012.96 1011.96 1011.66 1010.82 1009.17 1007.17 1005.46 1003.65 1002.51 1001.87 1000.89 1000.27 999.64 999.25 998.57 997.54 996.50 994.69 993.68 993.21 992.00 993.16 994.36 995.12 994.93 994.56 994.19 994.52 995.01 995.73 996.65 997.78 998.21
1025.35 1024.87 1024.36 1023.80 1023.20 1022.71 1022.11 1021.65 1021.21 1020.83 1020.50 1020.14 1018.34 1016.43 1015.98 1015.17 1013.74 1012.62 1010.91 1008.88 1006.22 1004.23 1002.58 1001.70 1000.57 1000.25 1000.27 1000.39 1000.01 999.55 998.71 996.98 995.51 994.91 993.67 992.91 994.11 994.55 994.56 994.30 993.73 993.72 994.01 994.56 995.42 996.07 996.62
1025.05 1024.45 1024.01 1023.56 1023.04 1022.43 1021.91 1021.36 1020.94 1020.62 1020.39 1019.91 1018.67 1018.14 1017.15 1016.39 1014.88 1012.93 1011.80 1009.53 1007.13 1005.35 1004.08 1002.79 1002.42 1001.08 1001.07 1001.86 1002.55 1001.97 1001.42 1000.25 998.65 997.31 996.31 994.79 994.63 994.57 994.65 994.17 993.39 993.39 993.59 993.49 993.85 994.53 995.01
1024.86 1024.35 1023.81 1023.18 1022.63 1022.00 1021.41 1020.97 1020.55 1020.34 1020.36 1019.70 1018.40 1018.20 1017.92 1016.53 1014.71 1013.81 1013.37 1011.29 1009.17 1007.49 1004.92 1004.32 1003.84 1003.29 1002.76 1003.55 1003.25 1002.80 1002.39 1001.64 1000.57 1000.01 998.75 997.23 996.26 995.32 995.03 994.35 993.92 993.24 992.29 992.75 993.13 993.17 993.82
1024.63 1024.09 1023.46 1022.88 1022.21 1021.61 1020.94 1020.40 1020.01 1019.77 1019.92 1019.84 1019.01 1018.55 1018.10 1016.48 1015.41 1013.97 1013.51 1011.96 1010.31 1008.52 1007.12 1005.89 1004.97 1004.61 1004.37 1003.89 1003.18 1002.13 1001.66 1001.09 1000.19 999.71 999.27 998.46 997.65 996.48 995.68 995.05 994.22 992.18 991.37 991.87 992.46 992.72 992.91
1024.21 1023.70 1023.05 1022.46 1021.84 1021.18 1020.57 1020.02 1019.58 1019.23 1019.05 1019.19 1018.77 1018.58 1018.07 1016.67 1015.77 1014.11 1013.08 1011.98 1010.26 1009.33 1007.75 1006.83 1006.35 1005.75 1004.61 1004.39 1003.78 1002.70 1001.29 1000.58 999.79 999.22 998.80 998.45 998.14 997.37 996.47 995.49 993.97 992.24 991.57 991.73 992.23 992.47 992.67
1023.71 1023.11 1022.64 1022.09 1021.48 1020.92 1020.26 1019.73 1019.41 1019.09 1018.88 1018.81 1018.41 1018.06 1017.99 1017.16 1014.78 1014.45 1013.68 1012.38 1011.18 1010.17 1008.63 1008.03 1007.72 1006.49 1005.49 1005.17 1005.10 1004.47 1002.87 1001.05 999.82 998.70 998.19 998.18 998.08 998.41 996.93 995.87 994.10 992.81 992.08 991.61 992.21 992.82 992.22
1023.19 1022.65 1022.21 1021.65 1021.20 1020.69 1020.08 1019.49 1019.17 1018.74 1018.47 1018.62 1017.99 1017.60 1017.73 1017.01 1014.88 1014.20 1013.47 1012.83 1011.64 1010.76 1010.08 1009.15 1008.87 1007.62 1006.96 1006.48 1006.15 1005.64 1004.35 1002.88 1001.29 999.69 999.19 998.98 998.71 998.50 997.66 996.28 994.61 992.81 992.60 992.53 993.33 994.43 993.31
1022.70 1022.23 1021.71 1021.22 1020.73 1020.22 1019.71 1019.27 1018.95 1018.60 1018.33 1018.22 1017.56 1017.31 1017.58 1016.72 1014.79 1014.03 1013.45 1012.73 1011.88 1011.47 1011.25 1010.15 1009.37 1009.13 1008.68 1008.17 1007.69 1006.89 1005.45 1004.15 1002.59 1001.32 1000.65 999.87 999.70 999.02 997.94 996.78 995.79 993.94 993.63 994.36 994.97 994.44 993.77
1022.22 1021.74 1021.18 1020.67 1020.07 1019.58 1019.27 1018.97 1018.63 1018.37 1018.22 1018.09 1017.32 1016.61 1016.57 1016.99 1014.80 1013.74 1013.23 1012.68 1012.24 1011.60 1011.39 1010.68 1010.47 1010.42 1010.67 1010.37 1010.16 1009.15 1007.39 1005.48 1004.40 1002.79 1001.12 1001.11 1000.56 999.83 998.25 997.03 995.85 995.35 995.38 995.10 995.17 995.15 994.65
Wind_Speed
19 19 19 19 18 19 19 19 20 20 20 22 23 24 24 25 25 24 25 24 23 22 21 20 18 14 7 4 14 10 7 5 5 4 11 10 14 10 11 11 16 4 12 12 12 13 12
19 19 20 20 19 20 20 21 21 21 21 22 23 23 24 25 26 26 25 24 24 24 22 19 15 10 3 11 10 17 12 8 9 8 9 12 10 10 12 16 13 6 13 17 12 11 10
19 19 19 19 19 20 22 22 23 23 23 23 23 24 25 26 27 27 27 26 25 24 22 18 10 5 7 22 6 5 11 10 8 10 10 11 15 11 10 12 9 15 5 19 11 10 11
20 19 20 20 20 20 21 22 23 24 23 24 24 25 26 28 28 28 28 29 28 26 20 14 7 5 11 9 17 21 17 13 11 9 11 11 12 13 7 10 15 9 5 7 9 9 9
20 19 19 21 20 20 21 22 22 23 22 23 25 27 27 29 30 30 29 32 31 21 10 4 4 4 12 10 10 14 14 13 11 9 9 14 10 9 9 7 8 6 6 10 5 1 8
20 21 21 21 21 21 20 21 21 22 22 23 25 27 29 30 31 30 32 32 20 6 5 9 9 4 9 13 8 13 17 17 10 9 9 9 5 6 6 2 10 8 4 8 12 7 9
20 20 20 21 21 21 21 21 22 22 23 24 25 27 29 31 33 31 20 9 3 1 5 10 10 10 16 10 9 10 9 12 12 9 9 11 5 9 13 15 17 8 12 18 17 12 8
19 20 20 20 20 20 21 22 22 23 23 24 25 27 30 32 35 35 9 4 5 7 13 15 25 25 27 18 16 15 13 11 12 11 9 6 16 17 13 15 16 15 15 16 10 13 7
18 19 19 19 19 20 21 21 22 23 24 25 25 26 29 32 38 14 13 11 10 11 6 14 25 18 23 13 24 14 18 15 9 11 15 16 11 16 19 15 17 18 13 17 10 10 10
19 18 19 19 20 20 21 22 23 24 25 25 25 26 26 33 10 11 8 17 13 11 5 11 10 11 14 13 17 14 18 19 9 16 15 13 16 20 20 17 17 17 18 13 19 7 5
18 18 18 19 20 20 21 22 24 25 25 26 26 26 24 19 9 6 11 18 19 6 6 4 11 8 15 15 7 16 19 13 19 11 10 13 16 18 19 20 18 17 12 5 16 16 12
19 19 19 19 19 21 21 22 23 24 26 27 28 26 27 9 5 16 16 19 6 2 11 6 10 11 12 19 17 14 12 14 10 15 15 14 10 13 17 16 18 18 13 13 6 9 8
19 19 19 19 20 21 20 21 23 24 25 27 28 31 23 9 7 8 12 6 3 8 9 7 13 17 17 11 24 23 22 19 16 15 16 11 21 16 18 10 15 17 9 5 5 3 7
19 18 19 19 20 21 22 23 23 23 26 29 31 33 9 10 10 13 5 4 9 10 16 10 7 15 19 15 22 21 17 16 18 13 7 10 11 18 14 16 9 18 11 7 6 5 7
18 19 19 18 19 20 21 22 24 25 25 29 28 8 9 9 13 9 5 9 7 7 6 20 17 13 13 15 10 19 21 20 20 22 12 13 17 8 18 11 13 10 13 11 5 8 3
18 18 18 18 18 18 19 19 21 24 28 30 11 7 11 13 11 6 8 14 11 15 25 19 9 7 4 19 21 22 21 16 22 23 20 9 7 18 17 16 13 14 8 11 6 6 6
18 18 18 18 19 19 20 20 20 22 24 32 3 8 11 13 7 7 11 10 17 31 20 13 16 24 20 16 12 18 21 22 19 21 23 19 10 15 16 18 16 5 11 4 6 7 7
18 18 18 18 19 19 19 20 20 20 22 10 6 6 8 15 6 5 11 17 20 30 22 21 24 24 22 14 10 7 13 27 21 19 23 19 7 14 17 13 20 11 9 9 6 7 4
19 18 18 18 18 18 18 18 18 18 16 7 7 9 8 8 6 9 13 21 21 24 22 20 19 19 19 10 7 6 8 10 10 21 21 17 16 11 10 9 11 20 12 9 6 4 10
19 18 18 19 19 19 19 18 17 16 14 7 5 7 7 7 12 15 16 16 21 20 23 22 23 21 13 9 7 9 17 13 22 22 23 18 9 16 14 10 5 19 16 13 10 10 7
19 19 19 19 19 19 19 18 17 15 12 5 4 5 4 6 13 20 17 19 18 18 11 12 15 14 6 6 8 11 13 15 16 16 16 20 17 12 20 17 17 7 20 20 14 9 10
19 20 19 20 20 20 19 18 17 14 11 4 3 4 5 10 11 16 15 14 17 15 11 13 15 12 9 6 8 11 13 7 5 14 11 11 5 9 11 20 21 18 12 19 20 16 7
20 20 21 20 20 20 20 19 17 11 6 4 5 4 5 6 10 9 5 18 24 22 13 15 14 11 11 16 14 15 11 12 14 10 11 7 6 4 6 5 6 12 14 10 13 16 17
20 20 21 21 21 21 21 20 16 13 6 4 7 4 4 7 9 10 12 15 21 16 10 16 10 7 9 13 16 15 9 10 11 11 9 9 6 2 5 4 10 6 8 6 8 7 11
19 20 21 21 22 21 20 18 16 11 9 4 6 2 3 7 10 12 15 16 14 19 15 11 16 17 11 8 7 8 3 4 7 10 9 9 2 4 5 5 5 7 5 5 6 11 5
19 19 20 21 20 20 18 16 13 10 8 3 6 5 3 4 5 16 16 16 5 11 10 12 17 16 11 2 3 2 4 6 3 3 9 8 1 4 1 6 9 4 5 7 4 5 8
19 19 20 20 19 18 18 15 14 14 7 2 4 5 2 4 11 12 9 11 12 7 8 9 12 9 10 5 2 5 8 11 6 4 3 2 3 3 4 3 4 5 4 7 4 7 10
18 19 19 19 20 17 17 16 13 13 10 4 5 5 4 4 12 16 17 15 12 9 5 9 9 9 6 7 5 4 4 6 6 8 8 3 4 2 2 3 3 8 10 6 7 7 7
18 18 18 18 18 19 17 17 15 11 9 7 5 4 2 4 9 16 14 17 16 15 11 9 5 0 2 4 4 5 5 6 8 11 5 5 3 3 5 5 4 5 4 5 5 4 8
Wind_Direction
14 13 10 10 9 7 3 0 357 354 350 347 344 341 338 334 331 328 325 322 317 316 315 315 317 321 314 232 244 249 140 144 149 198 223 230 256 266 257 284 298 268 120 120 103 104 136
15 12 10 10 9 7 3 0 358 354 350 346 341 337 335 331 328 326 322 320 315 312 310 310 311 314 242 250 252 253 165 158 197 198 214 222 241 248 272 277 285 291 125 114 117 142 120
13 9 8 6 4 3 360 357 355 351 348 343 340 336 333 329 327 324 320 317 311 306 303 302 295 265 255 236 259 134 189 191 196 189 225 228 248 270 288 301 287 321 141 123 147 158 131
8 7 5 3 2 360 357 354 352 349 344 340 337 334 331 327 325 322 319 314 307 299 294 287 251 236 250 247 240 256 253 227 194 217 200 238 245 258 271 296 306 311 262 137 158 153 163
7 5 3 2 0 357 354 351 349 345 341 338 335 332 330 326 323 321 319 311 300 291 253 216 171 240 265 264 215 246 225 244 195 199 197 229 249 242 292 276 309 292 229 136 89 314 136
5 2 359 358 356 354 349 346 345 343 341 337 334 330 327 325 322 323 320 305 287 293 199 185 262 265 252 241 218 203 231 222 227 183 207 212 234 233 257 248 242 243 155 75 153 202 126
359 359 357 353 352 348 345 343 341 340 339 337 334 331 327 324 320 321 333 336 308 89 228 223 201 229 282 246 251 190 216 197 233 186 189 199 186 219 218 228 248 266 155 173 226 181 136
357 356 355 352 350 347 344 342 340 339 337 335 334 331 328 325 319 317 299 269 351 285 291 251 248 247 261 272 284 215 181 188 219 199 192 201 218 219 228 234 243 256 193 197 226 165 128
353 353 351 348 346 345 343 341 339 337 336 333 333 332 330 327 316 309 320 275 314 331 277 273 236 234 225 218 251 197 176 198 208 198 199 214 217 222 233 227 241 241 232 213 187 233 231
356 352 349 347 346 343 341 339 337 336 333 331 330 330 334 336 327 341 286 350 334 329 288 266 205 235 214 225 258 210 186 191 220 203 218 217 238 201 230 233 230 250 252 257 176 202 220
356 353 350 347 346 344 341 338 336 335 332 329 327 327 328 325 288 293 315 322 312 323 300 206 168 178 169 189 164 219 186 189 216 200 198 221 200 229 217 225 237 247 261 231 167 200 230
354 351 349 346 344 342 340 337 335 334 331 327 325 323 324 314 275 254 292 303 301 242 245 256 141 162 149 198 230 183 206 187 202 226 218 224 223 223 229 218 234 252 267 274 257 183 197
352 350 348 347 344 341 338 336 335 334 331 326 322 316 312 273 239 319 328 306 226 230 274 233 161 157 183 174 211 227 192 196 197 211 232 242 227 231 231 232 218 238 250 279 326 325 206
350 350 349 347 345 341 338 337 335 332 331 325 322 312 263 247 229 248 264 298 239 234 247 358 311 178 189 181 207 217 201 205 200 214 199 218 234 219 224 220 205 224 217 196 201 204 245
350 349 347 344 340 338 336 336 336 336 335 326 323 301 275 247 238 213 230 229 221 224 319 359 334 206 195 194 175 210 222 208 199 204 208 210 239 213 236 228 207 254 228 225 230 249 296
347 345 341 338 337 337 336 334 335 337 336 326 319 290 263 255 233 215 226 240 271 283 332 345 305 296 264 195 196 190 211 208 208 193 211 253 201 224 219 225 237 200 220 239 226 207 249
344 342 341 341 341 338 341 340 340 340 338 322 264 303 271 275 186 208 230 246 269 277 288 292 307 309 305 317 232 193 204 224 197 203 197 223 220 268 216 207 216 224 225 246 191 162 196
342 341 340 340 339 339 338 340 341 342 342 340 302 290 315 340 311 223 245 251 261 275 284 285 294 290 285 297 303 312 209 202 207 192 198 205 178 234 246 220 201 194 207 188 163 271 243
336 333 334 335 335 334 334 334 338 345 354 323 299 281 284 287 276 269 256 262 261 260 264 270 266 284 292 304 312 291 324 328 291 187 196 195 219 241 278 283 211 196 212 216 206 182 249
334 332 330 329 330 331 330 328 329 335 346 334 290 311 353 323 354 351 328 299 289 280 258 259 266 276 287 305 288 291 309 303 323 318 191 189 176 211 229 224 195 194 206 209 196 224 232
334 333 330 328 328 328 329 330 325 325 337 311 271 315 32 333 327 317 312 303 304 303 317 318 246 259 274 310 321 312 350 337 337 11 338 189 206 189 227 245 266 202 198 204 214 217 194
330 328 329 327 326 325 325 323 322 322 325 262 284 332 344 297 283 298 344 322 328 323 312 310 360 313 323 25 17 335 355 358 307 335 329 335 198 175 206 226 244 254 238 207 211 223 233
325 328 327 324 322 320 318 317 317 322 340 281 331 297 291 282 295 321 296 313 315 352 331 337 4 0 10 1 339 318 300 279 280 301 317 301 8 133 215 216 284 256 231 229 223 210 213
324 325 324 323 321 321 320 322 322 302 261 275 290 311 283 293 311 329 343 327 335 328 310 323 343 9 320 328 314 306 271 267 271 253 252 290 340 302 171 113 238 257 208 211 227 230 207
321 322 321 321 324 328 335 333 327 335 312 246 271 280 276 294 318 299 340 319 328 338 355 338 5 339 316 333 330 334 264 258 217 257 245 256 298 305 154 190 289 288 304 218 231 273 231
320 317 319 318 325 332 335 337 337 337 329 270 260 264 261 306 272 341 314 330 343 342 333 349 355 324 344 316 305 288 299 343 251 230 196 259 240 143 279 177 220 164 228 266 287 321 283
316 315 316 316 320 327 333 336 330 333 322 272 272 286 246 269 273 279 317 314 318 339 306 326 352 328 2 338 287 287 277 305 294 281 202 206 317 238 281 225 275 143 266 6 85 252 326
313 315 316 314 313 312 322 331 324 332 330 309 276 290 221 277 284 281 289 298 311 308 298 325 349 13 350 360 340 278 275 286 301 304 303 231 166 218 285 178 248 18 40 75 227 296 42
309 310 311 312 311 309 310 315 318 316 316 332 270 282 245 219 280 314 287 280 279 285 297 305 287 42 331 3 8 314 330 331 334 283 318 263 283 250 185 210 299 38 78 340 42 15 360